Weather History for Waukegan, IL

Change the Weather History Date:

Tuesday, November 13, 2012

  Actual Average Record
Temperature  
Mean Temperature 31 °F -  
Max Temperature 40 °F 48 °F 69 °F (1999)
Min Temperature 21 °F 33 °F 17 °F (1996)
Degree Days  
Heating Degree Days 34 25  
Month to date heating degree days 320 283  
Since 1 July heating degree days 971 889  
Cooling Degree Days 0 0  
Month to date cooling degree days 0 0  
Year to date cooling degree days 983 564  
Moisture  
Dew Point 19 °F    
Average Humidity 64    
Maximum Humidity 84    
Minimum Humidity 44    
Precipitation  
Precipitation 0.00 in 0.09 in 0.13 in (2000)
Month to date precipitation 0.39 1.31  
Year to date precipitation 23.39 32.14  
Sea Level Pressure  
Sea Level Pressure 30.48 in    
Wind  
Wind Speed 3 mph (WSW)    
Max Wind Speed 9 mph    
Max Gust Speed 15 mph    
Visibility 10 miles    
Events      
T = Trace of Precipitation, MM = Missing Value Source: NWS Daily Summary

Daily Weather History Graph

Daily Weather History Graph

Search for Another Location

Airport:

Trip Planner

Search our weather history database for the weather conditions in past years. The results will help you decide how hot, cold, wet, or windy it might be!

Date:

Astronomy

Nov. 13, 2012 Rise Set
Actual Time 6:40 AM CST 4:30 PM CST
Civil Twilight 6:10 AM CST 5:00 PM CST
Nautical Twilight 5:36 AM CST 5:34 PM CST
Astronomical Twilight 5:03 AM CST 6:07 PM CST
Moon 6:18 AM CST (11/13) 4:22 PM CST (11/13)
Length of Visible Light 10h 50m
Length of Day
9h 50m
Waning Crescent, 0% of the Moon is Illuminated
Nov 13
Waning Crescent
Nov 13
New
Nov 20
First Quarter
Nov 28
Full
Dec 6
Last Quarter

Hourly Weather History & Observations

Time (CST) Temp. Windchill Dew Point Humidity Pressure Visibility Wind Dir Wind Speed Gust Speed Precip Events Conditions
12:52 AM 25.0 °F 20.7 °F 16.0 °F 69% 30.37 in 10.0 mi West 3.5 mph - N/A   Mostly Cloudy
1:52 AM 24.1 °F 18.2 °F 16.0 °F 71% 30.38 in 10.0 mi West 4.6 mph - N/A   Overcast
2:52 AM 23.0 °F 17.0 °F 16.0 °F 74% 30.40 in 10.0 mi West 4.6 mph - N/A   Clear
3:52 AM 23.0 °F - 16.0 °F 74% 30.41 in 10.0 mi Calm Calm - N/A   Clear
4:52 AM 23.0 °F 18.4 °F 17.1 °F 78% 30.44 in 10.0 mi West 3.5 mph - N/A   Clear
5:52 AM 21.0 °F - 17.1 °F 85% 30.46 in 10.0 mi Calm Calm - N/A   Clear
6:52 AM 21.9 °F - 17.1 °F 82% 30.48 in 10.0 mi Calm Calm - N/A   Clear
7:52 AM 25.0 °F 19.3 °F 18.0 °F 75% 30.50 in 10.0 mi West 4.6 mph - N/A   Clear
8:52 AM 28.9 °F 25.2 °F 19.0 °F 67% 30.51 in 10.0 mi Variable 3.5 mph - N/A   Clear
9:52 AM 32.0 °F 27.5 °F 18.0 °F 56% 30.52 in 10.0 mi West 4.6 mph - N/A   Clear
10:52 AM 34.0 °F 28.0 °F 19.0 °F 54% 30.52 in 10.0 mi West 6.9 mph - N/A   Clear
11:52 AM 36.0 °F 30.3 °F 19.0 °F 50% 30.50 in 10.0 mi SW 6.9 mph - N/A   Clear
12:52 PM 37.9 °F - 18.0 °F 45% 30.48 in 10.0 mi Calm Calm - N/A   Clear
1:52 PM 37.9 °F 35.5 °F 19.0 °F 47% 30.47 in 10.0 mi Variable 3.5 mph - N/A   Clear
2:52 PM 39.0 °F 36.8 °F 19.0 °F 45% 30.46 in 10.0 mi Variable 3.5 mph - N/A   Clear
3:52 PM 37.0 °F 32.4 °F 21.0 °F 52% 30.48 in 10.0 mi SSW 5.8 mph - N/A   Clear
4:52 PM 33.1 °F - 19.0 °F 56% 30.49 in 10.0 mi Calm Calm - N/A   Clear
5:52 PM 28.0 °F - 19.9 °F 72% 30.51 in 10.0 mi Calm Calm - N/A   Clear
6:52 PM 27.0 °F - 21.0 °F 78% 30.51 in 10.0 mi Calm Calm - N/A   Clear
7:52 PM 27.0 °F - 19.9 °F 75% 30.51 in 10.0 mi Calm Calm - N/A   Clear
8:52 PM 26.1 °F - 21.0 °F 81% 30.52 in 10.0 mi Calm Calm - N/A   Clear
9:52 PM 28.9 °F 25.2 °F 21.9 °F 75% 30.51 in 10.0 mi SSW 3.5 mph - N/A   Clear
10:52 PM 30.0 °F 25.2 °F 21.9 °F 72% 30.52 in 10.0 mi SSW 4.6 mph - N/A   Clear
11:52 PM 27.0 °F 21.6 °F 21.9 °F 81% 30.52 in 10.0 mi SSW 4.6 mph - N/A   Clear